Regional Weather Roundup
Issued by NWS

Home | Current Version | Previous Version | Graphics & Text | Print | Product List | Glossary On
Versions: 1 2 3 4 5 6 7 8 9 10 11 12 13 14 15 16 17 18 19 20 21 22 23 24 25 26 27 28 29 30 31 32 33 34 35 36 37 38 39 40 41 42 43 44 45 46 47 48 49 50
000
ASUS43 KOAX 222002
RWRNE

WEATHER ROUNDUP FOR NEBRASKA
NATIONAL WEATHER SERVICE OMAHA NE
200 PM CST WED FEB 22 2017

NOTES: SATELLITE DATA IS BEING USED TO AUGMENT CLOUD COVER ABOVE
       12000 FEET.
       "FAIR" INDICATES FEW OR NO CLOUDS BELOW 12,000 FEET WITH NO
       SIGNIFICANT WEATHER AND/OR OBSTRUCTIONS TO VISIBILITY.

  * THESE STATIONS DO NOT REPORT WEATHER SUCH AS RAIN...SNOW OR FOG.

NEZ001>004-019>022-054>056-222100-
NEBRASKA PANHANDLE

CITY           SKY/WX    TMP DP  RH WIND       PRES   REMARKS
SCOTTSBLUFF    CLOUDY    56  18  22 W22G29    29.81F
ALLIANCE       SUNNY     56  20  24 NW25G35   29.77F
CHADRON        SUNNY     57  20  23 W23G32    29.78F
KIMBALL        SUNNY     54  20  26 NW18G29   29.82S
SIDNEY         SUNNY     59  14  17 NW15      29.80F
$$

NEZ057>060-069>072-079>082-222100-
SOUTHWEST NEBRASKA

CITY           SKY/WX    TMP DP  RH WIND       PRES   REMARKS
NORTH PLATTE   SUNNY     65  21  18 NW12G21   29.77F
IMPERIAL       SUNNY     63  18  17 W9        29.78F
LEXINGTON      SUNNY     67  24  19 NW14G21   29.75F
MCCOOK         SUNNY     67  25  20 NW12      29.77F
OGALLALA       SUNNY     62  18  18 N15G22    29.78F
$$

NEZ005>010-023>029-035>040-094-222100-
NORTH CENTRAL NEBRASKA

CITY           SKY/WX    TMP DP  RH WIND       PRES   REMARKS
VALENTINE      MOSUNNY   60  28  29 NW15      29.75F
AINSWORTH      MOSUNNY   59  33  38 NW13G18   29.75S
BROKEN BOW     SUNNY     66  21  18 NW17      29.73F
O`NEILL        SUNNY     63  31  30 NW21G30   29.72S
ORD            SUNNY     66  27  23 NW22      29.71F
THEDFORD       SUNNY     62  26  24 NW17G26   29.75F
$$

NEZ041-046>049-061>064-073>077-083>087-222100-
SOUTH CENTRAL NEBRASKA

CITY           SKY/WX    TMP DP  RH WIND       PRES   REMARKS
GRAND ISLAND   SUNNY     70  28  21 NW20G28   29.70F
AURORA         SUNNY     71  30  22 N14G23    29.69F
HASTINGS       SUNNY     71  27  19 NW16      29.71F
HEBRON         SUNNY     75  26  16 NW7G16    29.68S
HOLDREGE       SUNNY     68  22  17 NW10G21   29.74S
KEARNEY *      SUNNY     70  25  18 NW12G18   29.73F
YORK           SUNNY     72  32  23 NW22      29.67F
$$

NEZ011>018-030>034-042>045-222100-
NORTHEAST NEBRASKA

CITY           SKY/WX    TMP DP  RH WIND       PRES   REMARKS
NORFOLK        SUNNY     67  32  27 NW21      29.66S
ALBION         SUNNY     68  30  24 NW15G26   29.69S
BLAIR          SUNNY     71  38  30 NW16G23   29.64S
FREMONT        SUNNY     72  36  26 NW20      29.65S
TEKAMAH        SUNNY     70  38  31 NW24      29.63R
WAYNE          SUNNY     67  37  32 NW21      29.66S
$$

NEZ050>053-065>068-078-088>093-222100-
SOUTHEAST NEBRASKA

CITY           SKY/WX    TMP DP  RH WIND       PRES   REMARKS
LINCOLN        SUNNY     75  36  24 NW12      29.65F
OMAHA EPPLEY   MOSUNNY   74  40  29 NW12G21   29.62F
BEATRICE       SUNNY     76  37  23 NW13      29.65F
FALLS CITY     SUNNY     76  35  22 NW10G20   29.63F
NEBRASKA CITY  SUNNY     71  26  18 NW8       29.65F
PLATTSMOUTH    SUNNY     72  30  21 NW13G18   29.64S
$$

NEZ044-045-051>053-067-222100-
OMAHA AREA

CITY           SKY/WX    TMP DP  RH WIND       PRES   REMARKS
OMAHA EPPLEY   MOSUNNY   74  40  29 NW12G21   29.62F
BLAIR          SUNNY     71  38  30 NW16G23   29.64S
FREMONT        SUNNY     72  36  26 NW20      29.65S
MILLARD        SUNNY     74  43  32 NW8       29.64S
OFFUTT AFB     SUNNY     73  39  28 NW10      29.62F
PLATTSMOUTH    SUNNY     72  30  21 NW13G18   29.64S
WAHOO          FAIR      72  34  24 W17G25    29.65R
$$



USA.gov is the U.S. government's official web portal to all federal, state and local government web resources and services.